カタログに戻る

NAHID 2

運用中通信SSO
NORAD 64889·PAYLOAD·🇮🇷 Iran
この衛星名は、まだ公式ソースで確認されていません。

打ち上げ Jul 25, 2025 から Vostochny Cosmodrome

Loading…

次のパス (今後24時間)

TLE

最新Source: Space-Track

元期: Sep 14, 2026, 14:14 UTC

1 64889U 25155P   26257.59344810  .00004085  00000-0  15582-3 0  9990
2 64889  97.4706 225.4269 0006029 208.7652 151.3255 15.27237689 94350

AllMySatでNAHID 2をリアルタイム追跡

Download on the App Store